SCP
0 0 0 0 0 0 0 0 0 0 0 0 0 0 0 0 0 0 0 0 0 0 0 0 0 0 0 0 0 0 0 0 0 0 0 0 0 0 0 0 0 0 0 0
0 0 0 0 0 0 0 0 0 0 0 0 0 0 0 0 0 0 0 0 0 0 0 0 0 0 0 0 0 0 0 0 0 0 0 0 0 0 0 0 0 0 0 0
0 0 0 0 0 0 0 0 0 0 0 0 0 0 0 0 0 0 0 0 0 0 0 0 0 0 0 0 0 0 0 0 0 0 0 0 0 0 0 0 0 0 0 0
0 0 0 0 0 0 0 0 0 0 0 0 0 0 0 0 0 0 0 0 0 0 0 0 0 0 0 0 0 0 0 0 0 0 0 0 0 0 0 0 0 0 0 0
0 0 0 0 0 0 0 0 0 0 0 0 0 0 0 0 0 0 0 0 0 0 0 0 0 0 0 0 0 0 0 0 0 0 0 0 0 0 0 0 0 0 0 0
0 0 0 0 0 0 0 0 0 0 0 0 0 0 0 0 0 0 0 0 0 0 0 0 0 0 0 0 0 0 0 0 0 -0 -0 0 0 0 0 0 0 0 0 0
0 0 0 0 0 0 0 0 0 0 0 0 0 0 0 0 0 0 0 0 0 0 0 0 0 0 0 0 0 0 0 0 0 0 0 -0 -0 -0 -0 0 0 0 0 0
0 0 0 0 0 0 0 0 0 0 0 0 0 0 0 0 0 0 0 0 0 0 0 0 0 0 0 0 0 -0 -0 0 0 0 -0 -0 -0 -0 0 0 0 0 0 0
0 0 0 0 0 0 0 0 0 0 0 0 0 0 0 0 0 0 0 0 0 0 0 0 0 0 0 0 0 -0 -0 -0 0 0 0 0 0 0 0 0 0 0 0 0
0 0 0 0 0 0 0 0 0 0 0 0 0 0 0 0 0 0 0 0 0 0 0 0 0 0 0 -0 -0 -0 0 0 0 0 0 0 0 0 0 0 0 0 0 0
0 0 0 0 0 0 0 0 0 0 0 0 0 0 0 0 0 0 0 0 0 0 0 0 0 0 -0 -0 -0 0 0 0 0 0 0 0 0 0 0 0 0 0 0 0
0 0 0 0 0 0 0 0 0 0 0 0 0 0 0 0 0 0 0 0 0 0 0 0 0 0 0 0 0 0 0 0 0 0 0 0 0 0 0 0 0 0 0 0
0 0 0 0 0 0 0 0 0 0 0 0 0 0 0 0 0 0 0 0 0 0 0 0 0 0 0 0 0 0 0 0 0 0 0 0 0 0 0 0 0 0 0 0
0 0 0 0 0 0 0 0 0 0 0 0 0 0 0 0 0 0 0 0 0 0 0 0 0 0 0 0 0 0 0 0 0 0 0 0 0 0 0 0 0 0 0 0
0 0 0 0 0 0 0 0 0 0 0 0 0 0 0 0 0 0 0 0 0 0 0 0 0 0 0 0 0 0 0 0 0 0 0 0 0 0 0 0 0 0 0 0
0 0 0 0 0 0 0 0 0 0 0 0 0 0 0 0 0 0 0 0 0 0 0 0 0 0 0 0 0 0 0 0 0 0 0 0 0 0 0 0 0 0 0 0
0 0 0 0 0 0 0 0 0 0 0 0 0 0 0 0 0 0 0 0 0 0 0 0 0 0 0 0 0 0 0 0 0 0 0 0 0 0 0 0 0 0 0 0
0 0 0 0 0 0 0 0 0 0 0 0 0 0 0 0 0 0 0 0 0 0 0 0 0 0 0 0 0 0 0 0 0 0 0 0 0 0 0 0 0 0 0 0
0 0 0 0 0 0 0 0 0 0 0 0 0 0 0 0 0 0 0 0 0 0 0 0 0 0 0 0 0 0 0 0 0 0 0 0 0 0 0 0 0 0 0 0
0 0 0 0 0 0 0 0 0 0 0 0 0 0 0 0 0 0 0 0 0 0 0 0 0 0 0 0 0 0 0 0 0 0 0 0 0 0 0 0 0 0 0 0
0 0 0 0 0 0 0 0 0 0 0 0 0 0 0 0 0 0 0 0 0 0 0 0 0 0 0 0 0 0 0 0 0 0 0 0 0 0 0 0 0 0 0 0
0 0 0 0 0 0 0 0 0 0 0 0 0 0 0 0 0 0 0 0 0 0 0 0 0 0 0 0 0 0 0 0 0 0 0 0 0 0 0 0 0 0 0 0
0 0 0 0 0 0 0 0 0 0 0 0 0 0 0 0 0 0 0 0 0 0 0 0 0 0 0 0 0 0 0 0 0 0 0 0 0 0 0 0 0 0 0 0
0 0 0 0 0 0 0 0 0 0 0 0 0 0 0 0 0 0 0 0 0 0 0 0 0 0 0 0 0 0 0 0 0 0 0 0 0 0 0 0 0 0 0 0
0 0 0 0 0 0 0 0 0 0 0 0 0 0 0 0 0 0 0 0 0 0 0 0 0 0 0 0 0 0 0 0 0 0 0 0 0 0 0 0 0 0 0 0
0 0 0 0 0 0 0 0 0 0 0 0 0 0 0 0 0 0 0 0 0 0 0 0 0 0 0 0 0 0 0 0 0 0 0 0 0 0 0 0 0 0 0 0
Wind_Speed_500mb
5 7 15 25 23 5 7 8 9 8 7 5 13 15 9 16 30 30 29 32 35 37 35 34 33 29 21 13 14 17 13 16 9 7 9 8 10 9 15 18 21 21 21 20
7 14 25 9 9 9 7 5 12 12 7 10 14 20 12 19 14 22 29 33 35 37 41 47 50 50 53 48 43 34 27 20 16 11 5 2 2 5 7 8 11 16 19 20
16 12 7 15 10 10 8 10 9 14 6 2 8 15 7 10 27 30 30 31 31 36 43 45 49 53 53 56 57 55 51 46 40 28 16 11 7 6 2 5 5 9 11 15
11 11 9 9 10 14 6 13 7 6 4 5 4 9 7 10 10 12 20 26 32 33 36 39 42 47 49 52 49 48 45 45 44 38 32 26 22 20 20 16 15 13 13 14
13 10 10 9 12 11 12 8 9 5 6 6 6 3 11 12 8 9 16 24 26 28 30 35 39 44 47 46 47 47 43 40 38 35 33 31 30 30 26 20 14 15 18 19
11 4 9 16 5 11 10 7 9 7 6 1 14 14 8 10 8 11 24 27 27 27 29 34 35 35 34 32 31 30 28 30 29 29 29 27 24 23 19 20 21 21 21 23
2 7 1 5 10 5 9 10 5 7 4 10 5 7 14 8 10 20 35 39 32 29 30 30 26 23 20 17 18 19 16 18 20 20 19 19 18 19 21 20 21 20 23 25
12 7 15 7 10 12 11 14 10 13 6 7 9 12 9 4 5 36 50 41 35 31 28 20 15 10 9 10 10 8 8 11 12 14 18 20 20 20 23 26 30 31 30 30
10 8 3 5 3 7 9 8 8 11 5 2 9 8 2 7 7 28 40 40 39 34 29 17 10 4 3 4 3 4 5 7 9 10 12 15 18 20 24 27 30 32 33 36
11 3 4 6 8 6 8 12 7 5 3 9 9 12 10 15 20 15 23 45 42 36 31 23 13 7 3 3 2 3 2 3 5 7 9 12 16 20 24 28 31 33 35 38
11 6 3 6 11 17 4 4 7 7 9 10 4 11 8 22 27 30 40 49 43 40 31 25 22 17 12 8 7 6 4 2 4 8 12 15 19 23 27 31 35 39 42 46
11 10 8 15 3 5 5 14 14 11 12 6 5 19 7 11 30 38 46 46 39 33 31 32 28 22 18 13 13 12 8 4 5 9 13 19 23 28 32 35 37 40 42 43
16 3 3 13 6 3 8 9 7 9 7 14 10 12 5 8 20 43 44 39 28 30 37 39 39 34 24 21 22 19 12 11 12 17 22 27 34 38 42 44 47 50 52 54
17 7 15 21 11 9 8 9 9 11 8 9 28 14 3 6 13 23 40 28 25 30 37 45 45 38 30 29 24 17 14 16 19 23 27 32 39 44 48 51 54 54 57 65
9 14 7 5 4 6 9 12 19 17 15 20 11 22 9 16 19 42 49 36 28 29 37 48 48 39 33 28 23 19 20 25 28 32 33 36 43 48 54 59 60 62 69 78
4 4 5 5 2 4 9 12 16 14 10 14 16 36 15 11 23 36 45 40 32 35 41 46 42 34 31 30 28 27 29 35 38 40 42 44 52 58 62 64 63 70 78 82
12 13 7 13 5 5 17 19 30 15 16 19 28 32 6 10 23 33 32 34 35 34 34 38 38 35 34 34 32 40 44 46 48 50 52 53 56 62 64 63 69 77 81 86
12 11 4 7 3 11 9 5 6 13 14 9 4 7 8 7 12 18 20 27 32 29 28 28 27 27 29 35 46 52 51 47 46 52 55 57 63 63 62 66 74 78 82 86
4 10 5 7 8 15 16 10 14 14 18 16 19 8 14 11 7 20 20 24 25 30 31 27 23 26 31 40 47 54 52 49 49 54 58 61 61 59 63 71 75 78 83 86
5 7 9 7 10 18 9 2 14 12 11 18 22 18 18 16 3 12 29 34 32 32 27 25 26 31 37 46 52 56 55 55 56 56 59 58 56 59 66 70 76 79 82 88
7 1 17 12 14 14 10 12 12 11 13 23 28 23 23 11 30 33 14 19 39 42 36 30 32 35 36 45 56 61 60 58 57 56 54 54 54 60 66 70 74 79 83 86
14 17 10 4 6 17 21 13 15 10 17 32 30 25 29 30 32 32 28 26 36 49 49 41 41 43 43 47 58 64 63 60 56 52 52 53 54 57 61 67 71 74 78 81
5 15 12 18 13 3 46 14 42 29 29 34 33 25 28 37 39 36 39 44 47 51 58 53 51 50 51 56 62 66 64 58 55 54 52 52 53 54 58 64 67 71 71 74
11 11 6 8 9 17 31 38 34 39 56 45 40 37 36 44 48 49 47 47 53 53 57 57 53 53 59 64 67 65 60 58 55 55 55 53 53 54 57 61 61 65 66 70
12 18 14 6 11 9 33 46 51 51 53 48 51 56 55 50 53 54 51 51 51 53 58 52 53 57 63 65 63 61 59 58 59 56 54 51 53 55 58 59 58 59 59 61
21 12 9 10 33 24 33 45 39 42 50 50 54 50 49 48 51 54 55 56 54 56 53 53 55 59 61 59 58 57 57 59 56 52 50 52 54 56 57 60 63 48 49 53
Wind_Direction_500mb
162 120 206 203 201 172 151 186 231 264 267 344 257 257 334 32 70 94 91 88 84 77 72 70 69 64 58 53 62 68 74 76 92 154 174 191 222 217 250 255 255 256 256 248
65 224 232 144 170 211 251 238 262 281 272 173 289 281 72 43 62 98 105 100 98 95 86 80 77 74 69 66 64 63 63 63 67 68 78 166 186 195 219 262 273 271 268 265
179 215 163 175 164 167 215 192 218 228 335 285 331 290 163 63 89 97 102 106 99 91 85 82 79 76 73 68 64 62 61 59 58 56 60 68 69 95 167 288 331 342 307 293
236 242 175 170 186 158 241 214 212 190 95 227 32 277 309 138 100 73 113 113 109 102 93 87 81 76 71 66 63 61 59 60 62 62 59 60 63 61 52 37 28 4 343 332
237 173 165 185 218 157 228 148 148 119 117 70 288 303 263 117 174 177 157 135 124 113 103 93 83 75 67 58 49 42 40 41 47 48 52 59 62 65 65 58 41 30 19 12
234 228 183 193 123 156 137 111 69 64 103 264 233 180 263 193 203 169 175 159 146 131 117 101 89 79 69 63 53 48 45 46 39 25 23 29 45 55 52 51 42 40 35 28
212 223 199 181 94 55 88 70 321 338 355 227 131 133 246 296 297 186 169 167 158 147 129 114 101 84 75 67 55 45 44 51 54 49 50 39 30 25 22 22 24 16 12 13
166 243 167 190 182 177 176 160 162 221 200 282 319 231 258 320 345 159 165 162 161 157 146 132 119 89 73 55 44 39 42 53 56 48 44 42 35 28 24 21 16 13 8 8
149 265 104 100 92 131 184 176 165 106 50 49 249 293 218 92 88 142 161 172 178 174 171 177 173 152 51 42 35 37 44 56 48 39 32 21 16 10 8 4 0 357 352 350
200 120 206 147 104 27 158 163 87 21 162 250 277 274 226 198 195 190 191 193 190 189 193 202 217 227 251 291 283 155 136 89 62 36 14 3 357 354 353 348 344 342 342 338
136 119 243 109 189 181 131 180 73 126 145 180 257 256 237 192 183 191 203 200 199 201 207 220 229 229 240 245 210 189 166 80 25 359 351 346 342 340 338 334 330 328 329 330
182 143 178 202 116 302 214 187 159 187 234 244 163 260 354 176 188 188 200 204 208 216 231 232 236 238 240 235 219 202 198 223 292 316 320 319 321 323 322 321 322 322 322 321
175 203 70 344 13 360 213 203 148 105 66 201 178 263 31 86 161 202 202 204 219 243 240 237 232 231 238 234 217 213 226 265 299 318 323 323 323 322 321 320 320 321 321 322
161 145 168 226 191 138 183 206 178 141 150 184 230 257 204 199 213 206 206 212 276 271 249 240 230 228 231 221 215 225 257 278 289 300 307 311 315 316 317 316 317 317 318 317
149 208 149 27 99 126 194 193 178 188 208 202 217 229 195 200 206 215 220 269 275 262 246 235 227 224 224 223 225 245 273 274 275 282 289 297 304 308 311 312 313 314 315 315
28 153 102 222 321 309 273 201 221 219 225 256 259 264 268 194 221 234 255 270 249 242 235 224 221 224 229 235 243 256 267 267 269 272 281 290 297 300 304 305 306 309 311 311
137 134 123 238 66 62 285 218 206 199 207 215 232 246 158 185 206 229 235 238 240 234 225 221 224 230 243 248 255 263 266 268 266 268 275 281 288 292 296 298 303 307 309 311
139 114 130 155 132 222 251 125 125 213 257 207 283 229 193 210 229 244 242 243 234 228 220 218 223 236 244 255 256 259 258 260 264 266 268 275 286 290 292 298 304 307 310 312
61 132 144 201 208 320 274 192 169 170 258 201 211 207 217 216 254 264 250 242 239 225 230 220 239 265 269 262 261 257 257 261 264 265 266 277 285 288 294 302 306 310 312 313
97 26 208 133 188 228 277 12 111 100 276 216 189 179 166 156 122 259 287 247 237 211 222 252 277 281 275 268 262 257 255 257 256 262 274 281 285 291 301 306 310 313 313 312
98 6 214 206 232 283 206 170 131 112 243 165 176 175 182 183 231 276 252 249 239 230 244 270 271 271 276 271 264 253 250 252 259 269 276 281 284 296 304 308 311 314 314 315
154 170 204 85 215 267 164 110 163 195 157 171 192 219 223 259 262 256 251 261 249 252 255 269 271 268 272 269 257 247 249 256 264 273 279 278 287 298 305 310 313 312 313 316
234 200 183 181 204 241 178 191 217 232 219 222 229 250 281 267 254 253 272 273 274 269 263 269 268 264 264 260 250 248 253 261 270 279 278 280 291 301 308 312 314 313 317 319
243 153 149 104 207 214 205 220 237 246 241 250 247 282 273 261 259 269 280 279 281 276 267 267 263 261 258 253 250 252 258 266 273 278 279 285 294 304 310 313 315 316 320 320
197 130 149 265 269 213 241 242 258 260 252 259 260 277 274 268 267 271 274 281 283 280 273 262 267 264 255 251 252 256 262 269 278 277 279 287 297 306 311 313 316 319 321 322
168 157 167 214 236 225 251 269 269 262 257 270 267 275 272 268 272 278 275 285 283 277 266 265 261 252 250 251 256 262 267 273 273 273 281 289 300 307 310 313 313 315 317 321
Wind_Speed_850mb
5 7 15 25 23 5 7 8 9 8 7 5 13 15 9 16 30 30 29 32 35 37 35 34 33 29 21 13 14 17 13 16 9 7 9 8 10 9 15 18 21 21 21 20
7 14 25 9 9 9 7 5 12 12 7 10 14 20 12 19 14 22 29 33 35 37 41 47 50 50 53 48 43 34 27 20 16 11 5 2 2 5 7 8 11 16 19 20
16 12 7 15 10 10 8 10 9 14 6 2 8 15 7 10 27 30 30 31 31 36 43 45 49 53 53 56 57 55 51 46 40 28 16 11 7 6 2 5 5 9 11 15
11 11 9 9 10 14 6 13 7 6 4 5 4 9 7 10 10 12 20 26 32 33 36 39 42 47 49 52 49 48 45 45 44 38 32 26 22 20 20 16 15 13 13 14
13 10 10 9 12 11 12 8 9 5 6 6 6 3 11 12 8 9 16 24 26 28 30 35 39 44 47 46 47 47 43 40 38 35 33 31 30 30 26 20 14 15 18 19
11 4 9 16 5 11 10 7 9 7 6 1 14 14 8 10 8 11 24 27 27 27 29 34 35 35 34 32 31 30 28 30 29 29 29 27 24 23 19 20 21 21 21 23
2 7 1 5 10 5 9 10 5 7 4 10 5 7 14 8 10 20 35 39 32 29 30 30 26 23 20 17 18 19 16 18 20 20 19 19 18 19 21 20 21 20 23 25
12 7 15 7 10 12 11 14 10 13 6 7 9 12 9 4 5 36 50 41 35 31 28 20 15 10 9 10 10 8 8 11 12 14 18 20 20 20 23 26 30 31 30 30
10 8 3 5 3 7 9 8 8 11 5 2 9 8 2 7 7 28 40 40 39 34 29 17 10 4 3 4 3 4 5 7 9 10 12 15 18 20 24 27 30 32 33 36
11 3 4 6 8 6 8 12 7 5 3 9 9 12 10 15 20 15 23 45 42 36 31 23 13 7 3 3 2 3 2 3 5 7 9 12 16 20 24 28 31 33 35 38
11 6 3 6 11 17 4 4 7 7 9 10 4 11 8 22 27 30 40 49 43 40 31 25 22 17 12 8 7 6 4 2 4 8 12 15 19 23 27 31 35 39 42 46
11 10 8 15 3 5 5 14 14 11 12 6 5 19 7 11 30 38 46 46 39 33 31 32 28 22 18 13 13 12 8 4 5 9 13 19 23 28 32 35 37 40 42 43
16 3 3 13 6 3 8 9 7 9 7 14 10 12 5 8 20 43 44 39 28 30 37 39 39 34 24 21 22 19 12 11 12 17 22 27 34 38 42 44 47 50 52 54
17 7 15 21 11 9 8 9 9 11 8 9 28 14 3 6 13 23 40 28 25 30 37 45 45 38 30 29 24 17 14 16 19 23 27 32 39 44 48 51 54 54 57 65
9 14 7 5 4 6 9 12 19 17 15 20 11 22 9 16 19 42 49 36 28 29 37 48 48 39 33 28 23 19 20 25 28 32 33 36 43 48 54 59 60 62 69 78
4 4 5 5 2 4 9 12 16 14 10 14 16 36 15 11 23 36 45 40 32 35 41 46 42 34 31 30 28 27 29 35 38 40 42 44 52 58 62 64 63 70 78 82
12 13 7 13 5 5 17 19 30 15 16 19 28 32 6 10 23 33 32 34 35 34 34 38 38 35 34 34 32 40 44 46 48 50 52 53 56 62 64 63 69 77 81 86
12 11 4 7 3 11 9 5 6 13 14 9 4 7 8 7 12 18 20 27 32 29 28 28 27 27 29 35 46 52 51 47 46 52 55 57 63 63 62 66 74 78 82 86
4 10 5 7 8 15 16 10 14 14 18 16 19 8 14 11 7 20 20 24 25 30 31 27 23 26 31 40 47 54 52 49 49 54 58 61 61 59 63 71 75 78 83 86
5 7 9 7 10 18 9 2 14 12 11 18 22 18 18 16 3 12 29 34 32 32 27 25 26 31 37 46 52 56 55 55 56 56 59 58 56 59 66 70 76 79 82 88
7 1 17 12 14 14 10 12 12 11 13 23 28 23 23 11 30 33 14 19 39 42 36 30 32 35 36 45 56 61 60 58 57 56 54 54 54 60 66 70 74 79 83 86
14 17 10 4 6 17 21 13 15 10 17 32 30 25 29 30 32 32 28 26 36 49 49 41 41 43 43 47 58 64 63 60 56 52 52 53 54 57 61 67 71 74 78 81
5 15 12 18 13 3 46 14 42 29 29 34 33 25 28 37 39 36 39 44 47 51 58 53 51 50 51 56 62 66 64 58 55 54 52 52 53 54 58 64 67 71 71 74
11 11 6 8 9 17 31 38 34 39 56 45 40 37 36 44 48 49 47 47 53 53 57 57 53 53 59 64 67 65 60 58 55 55 55 53 53 54 57 61 61 65 66 70
12 18 14 6 11 9 33 46 51 51 53 48 51 56 55 50 53 54 51 51 51 53 58 52 53 57 63 65 63 61 59 58 59 56 54 51 53 55 58 59 58 59 59 61
21 12 9 10 33 24 33 45 39 42 50 50 54 50 49 48 51 54 55 56 54 56 53 53 55 59 61 59 58 57 57 59 56 52 50 52 54 56 57 60 63 48 49 53
Wind_Direction_850mb
162 120 206 203 201 172 151 186 231 264 267 344 257 257 334 32 70 94 91 88 84 77 72 70 69 64 58 53 62 68 74 76 92 154 174 191 222 217 250 255 255 256 256 248
65 224 232 144 170 211 251 238 262 281 272 173 289 281 72 43 62 98 105 100 98 95 86 80 77 74 69 66 64 63 63 63 67 68 78 166 186 195 219 262 273 271 268 265
179 215 163 175 164 167 215 192 218 228 335 285 331 290 163 63 89 97 102 106 99 91 85 82 79 76 73 68 64 62 61 59 58 56 60 68 69 95 167 288 331 342 307 293
236 242 175 170 186 158 241 214 212 190 95 227 32 277 309 138 100 73 113 113 109 102 93 87 81 76 71 66 63 61 59 60 62 62 59 60 63 61 52 37 28 4 343 332
237 173 165 185 218 157 228 148 148 119 117 70 288 303 263 117 174 177 157 135 124 113 103 93 83 75 67 58 49 42 40 41 47 48 52 59 62 65 65 58 41 30 19 12
234 228 183 193 123 156 137 111 69 64 103 264 233 180 263 193 203 169 175 159 146 131 117 101 89 79 69 63 53 48 45 46 39 25 23 29 45 55 52 51 42 40 35 28
212 223 199 181 94 55 88 70 321 338 355 227 131 133 246 296 297 186 169 167 158 147 129 114 101 84 75 67 55 45 44 51 54 49 50 39 30 25 22 22 24 16 12 13
166 243 167 190 182 177 176 160 162 221 200 282 319 231 258 320 345 159 165 162 161 157 146 132 119 89 73 55 44 39 42 53 56 48 44 42 35 28 24 21 16 13 8 8
149 265 104 100 92 131 184 176 165 106 50 49 249 293 218 92 88 142 161 172 178 174 171 177 173 152 51 42 35 37 44 56 48 39 32 21 16 10 8 4 0 357 352 350
200 120 206 147 104 27 158 163 87 21 162 250 277 274 226 198 195 190 191 193 190 189 193 202 217 227 251 291 283 155 136 89 62 36 14 3 357 354 353 348 344 342 342 338
136 119 243 109 189 181 131 180 73 126 145 180 257 256 237 192 183 191 203 200 199 201 207 220 229 229 240 245 210 189 166 80 25 359 351 346 342 340 338 334 330 328 329 330
182 143 178 202 116 302 214 187 159 187 234 244 163 260 354 176 188 188 200 204 208 216 231 232 236 238 240 235 219 202 198 223 292 316 320 319 321 323 322 321 322 322 322 321
175 203 70 344 13 360 213 203 148 105 66 201 178 263 31 86 161 202 202 204 219 243 240 237 232 231 238 234 217 213 226 265 299 318 323 323 323 322 321 320 320 321 321 322
161 145 168 226 191 138 183 206 178 141 150 184 230 257 204 199 213 206 206 212 276 271 249 240 230 228 231 221 215 225 257 278 289 300 307 311 315 316 317 316 317 317 318 317
149 208 149 27 99 126 194 193 178 188 208 202 217 229 195 200 206 215 220 269 275 262 246 235 227 224 224 223 225 245 273 274 275 282 289 297 304 308 311 312 313 314 315 315
28 153 102 222 321 309 273 201 221 219 225 256 259 264 268 194 221 234 255 270 249 242 235 224 221 224 229 235 243 256 267 267 269 272 281 290 297 300 304 305 306 309 311 311
137 134 123 238 66 62 285 218 206 199 207 215 232 246 158 185 206 229 235 238 240 234 225 221 224 230 243 248 255 263 266 268 266 268 275 281 288 292 296 298 303 307 309 311
139 114 130 155 132 222 251 125 125 213 257 207 283 229 193 210 229 244 242 243 234 228 220 218 223 236 244 255 256 259 258 260 264 266 268 275 286 290 292 298 304 307 310 312
61 132 144 201 208 320 274 192 169 170 258 201 211 207 217 216 254 264 250 242 239 225 230 220 239 265 269 262 261 257 257 261 264 265 266 277 285 288 294 302 306 310 312 313
97 26 208 133 188 228 277 12 111 100 276 216 189 179 166 156 122 259 287 247 237 211 222 252 277 281 275 268 262 257 255 257 256 262 274 281 285 291 301 306 310 313 313 312
98 6 214 206 232 283 206 170 131 112 243 165 176 175 182 183 231 276 252 249 239 230 244 270 271 271 276 271 264 253 250 252 259 269 276 281 284 296 304 308 311 314 314 315
154 170 204 85 215 267 164 110 163 195 157 171 192 219 223 259 262 256 251 261 249 252 255 269 271 268 272 269 257 247 249 256 264 273 279 278 287 298 305 310 313 312 313 316
234 200 183 181 204 241 178 191 217 232 219 222 229 250 281 267 254 253 272 273 274 269 263 269 268 264 264 260 250 248 253 261 270 279 278 280 291 301 308 312 314 313 317 319
243 153 149 104 207 214 205 220 237 246 241 250 247 282 273 261 259 269 280 279 281 276 267 267 263 261 258 253 250 252 258 266 273 278 279 285 294 304 310 313 315 316 320 320
197 130 149 265 269 213 241 242 258 260 252 259 260 277 274 268 267 271 274 281 283 280 273 262 267 264 255 251 252 256 262 269 278 277 279 287 297 306 311 313 316 319 321 322
168 157 167 214 236 225 251 269 269 262 257 270 267 275 272 268 272 278 275 285 283 277 266 265 261 252 250 251 256 262 267 273 273 273 281 289 300 307 310 313 313 315 317 321